Location: Newark
(48.6461°N, 4.3644°W)
Time: 01:55:34
(UTC+00:00)

A-11 Canister half - Pass Details

Date: 04 February 2020
Orbit: 1517 x 1683 km, 47.2° (Epoch: 21 February)

Event Time Altitude Azimuth Distance (km) Brightness Sun altitude
Exits shadow 03:27:23 15° 149° (SSE) 3,287 10.7 -41.9°
Drops below altitude 10° 03:28:43 10° 146° (SE) 3,679 11.0 -41.7°
Sets 03:31:54 0° 140° (SE) 4,669 11.7 -41.2°
